Content
SEND FEEDBACK

Daily
Averages
Monthly
Summary
United States of America

BANTRY, NORTH DAKOTA


Home > North America > United States > North Dakota
Elevation: 1460 feet     Latitude: 48 30N     Longitude: 100 36W

WEATHER
 
SELECT A DAY
Number of Records: 86,393;   Date Range: 11/13/98 - 8/30/14
 
SHARE

PRINT THIS DATA

[ ← Previous Day ]
WEATHER ALMANAC - JANUARY 23, 2013
[ Next Day → ]
[ °C ]   °F
Weather ElementAverageHighLow
Temperature-8.7 °F (7:35 am)-14.8 °F (7:15 pm)
Dewpoint-14.7 °F (7:35 am)-22 °F (7:35 pm)
Humidity74.2 %85 % (12:35 am)64 % (7:35 pm)
Barometer30.38 in30.53 in (6:15 pm)30.12 in (12:35 am)
Wind Speed10.3 mph16.1 mph (11:35 pm)
Weather ElementAverage
Visibility9.9 mi
Wind DirectionSW (226.9 °)

Weather ElementTotal
Precipitation---
Heating Degree Days72.4 (Base 65)
Averaged from 71 records on January 23, 2013
WEATHER CONDITIONS BREAKOUT
WIND DIRECTION BREAKOUT
WEATHER BY HOUR - JANUARY 23, 2013
[ °C ]   °F
Local TimeTemperatureDewpointHumidityBarometerVisibilityWind DirectionWind SpeedGust SpeedPrecipitationEventsConditions
12:35 AM-2.2 °F-5.8 °F85 %30.12 in10.0 miWNW (300°)10.4 mphClear
12:55 AM-0.4 °F-4.0 °F85 %30.13 in10.0 miNW (310°)13.8 mphClear
1:15 AM-0.4 °F-4.0 °F85 %30.12 in10.0 miNW (310°)15.0 mphClear
1:35 AM-0.4 °F-5.8 °F78 %30.13 in10.0 miNW (310°)12.7 mphClear
1:55 AM-2.2 °F-7.6 °F78 %30.14 in10.0 miNW (320°)11.5 mphClear
2:15 AM-2.2 °F-7.6 °F78 %30.14 in10.0 miNW (310°)12.7 mphClear
2:35 AM-2.2 °F-7.6 °F78 %30.14 in10.0 miNW (310°)13.8 mphClear
2:55 AM-2.2 °F-7.6 °F78 %30.15 in10.0 miNW (310°)15.0 mphClear
3:15 AM-2.2 °F-7.6 °F78 %30.16 in10.0 miNW (310°)15.0 mphClear
3:35 AM-4.0 °F-9.4 °F78 %30.17 in10.0 miNW (310°)13.8 mphClear
3:55 AM-4.0 °F-9.4 °F78 %30.17 in10.0 miNW (310°)13.8 mphClear
4:15 AM-4.0 °F-9.4 °F78 %30.18 in10.0 miWNW (300°)13.8 mphClear
4:35 AM-5.8 °F-9.4 °F84 %30.19 in10.0 miNW (310°)15.0 mphClear
4:55 AM-7.6 °F-11.2 °F84 %30.19 in10.0 miNW (310°)12.7 mphClear
5:15 AM-7.6 °F-11.2 °F84 %30.21 in10.0 miNW (320°)12.7 mphClear
5:35 AM-7.6 °F-13.0 °F77 %30.22 in10.0 miNW (310°)13.8 mphClear
5:55 AM-9.4 °F-13.0 °F84 %30.23 in10.0 miNW (310°)13.8 mphClear
6:15 AM-9.4 °F-13.0 °F84 %30.24 in10.0 miNW (310°)13.8 mphClear
6:35 AM-9.4 °F-14.8 °F77 %30.26 in10.0 miNW (310°)11.5 mphClear
6:55 AM-11.2 °F-16.6 °F77 %30.27 in10.0 miNW (310°)11.5 mphClear
7:15 AM-11.2 °F-16.6 °F77 %30.28 in10.0 miNW (310°)11.5 mphClear
7:35 AM0.0 °F0.0 °F30.29 in10.0 miNW (310°)11.5 mphClear
7:55 AM-11.2 °F-16.6 °F77 %30.30 in10.0 miNW (310°)11.5 mphClear
8:15 AM-13.0 °F-18.4 °F77 %30.32 in10.0 miNW (320°)12.7 mphClear
8:35 AM-13.0 °F-16.6 °F84 %30.33 in10.0 miNW (320°)10.4 mphClear
8:55 AM-13.0 °F-18.4 °F77 %30.34 in10.0 miNW (320°)9.2 mphClear
9:15 AM-13.0 °F-18.4 °F77 %30.35 in10.0 miNNW (330°)9.2 mphClear
9:35 AM-13.0 °F-16.6 °F84 %30.36 in10.0 miNNW (330°)8.1 mphClear
9:55 AM-11.2 °F-16.6 °F77 %30.38 in10.0 miNNW (330°)6.9 mphClear
10:15 AM-11.2 °F-16.6 °F77 %30.39 in10.0 miNW (320°)9.2 mphClear
10:35 AM-11.2 °F-16.6 °F77 %30.40 in10.0 miNNW (330°)8.1 mphClear
10:55 AM-9.4 °F-14.8 °F77 %30.42 in10.0 miNW (320°)5.8 mphClear
11:15 AM-9.4 °F-14.8 °F77 %30.43 in10.0 miNNW (340°)4.6 mphClear
11:35 AM-7.6 °F-13.0 °F77 %30.44 in10.0 miNNW (330°)3.5 mphClear
11:55 AM-7.6 °F-13.0 °F77 %30.45 in10.0 miNW (320°)5.8 mphClear
12:15 PM-7.6 °F-13.0 °F77 %30.45 in10.0 miNW (320°)6.9 mphClear
12:35 PM-5.8 °F-13.0 °F71 %30.45 in10.0 miNW (320°)5.8 mphClear
12:55 PM-5.8 °F-13.0 °F71 %30.45 in10.0 miNNW (330°)6.9 mphClear
1:15 PM-5.8 °F-13.0 °F71 %30.44 in10.0 miNNW (330°)3.5 mphClear
1:35 PM-4.0 °F-13.0 °F65 %30.44 in10.0 miNorth (360°)4.6 mphClear
1:55 PM-4.0 °F-13.0 °F65 %30.45 in10.0 miNorth (350°)4.6 mphClear
2:15 PM-4.0 °F-13.0 °F65 %30.46 in10.0 miCalmClear
2:35 PM-5.8 °F-13.0 °F71 %30.46 in10.0 miEast (80°)11.5 mphClear
2:55 PM-7.6 °F-13.0 °F77 %30.47 in4.0 miENE (70°)9.2 mphHaze
3:15 PM-7.6 °F-14.8 °F71 %30.49 in10.0 miEast (90°)9.2 mphClear
3:35 PM-7.6 °F-14.8 °F71 %30.50 in10.0 miEast (80°)9.2 mphClear
3:55 PM-7.6 °F-16.6 °F65 %30.52 in10.0 miEast (80°)8.1 mphClear
4:15 PM-9.4 °F-16.6 °F71 %30.52 in10.0 miEast (100°)8.1 mphClear
4:35 PM-9.4 °F-16.6 °F71 %30.52 in10.0 miEast (90°)9.2 mphClear
4:55 PM-11.2 °F-18.4 °F70 %30.52 in10.0 miEast (100°)10.4 mphClear
5:15 PM-11.2 °F-18.4 °F70 %30.52 in10.0 miEast (100°)10.4 mphClear
5:35 PM0.0 °F0.0 °F30.52 in10.0 miEast (100°)9.2 mphClear
5:55 PM-13.0 °F-20.2 °F70 %30.52 in10.0 miESE (110°)8.1 mphClear
6:15 PM-13.0 °F-20.2 °F70 %30.53 in10.0 miESE (120°)8.1 mphClear
6:35 PM-13.0 °F-20.2 °F70 %30.53 in10.0 miESE (120°)8.1 mphClear
6:55 PM-13.0 °F-20.2 °F70 %30.53 in10.0 miESE (110°)9.2 mphClear
7:15 PM-14.8 °F-20.2 °F77 %30.51 in10.0 miEast (100°)9.2 mphClear
7:35 PM-13.0 °F-22.0 °F64 %30.51 in10.0 miEast (100°)10.4 mphClear
7:55 PM-14.8 °F-22.0 °F70 %30.51 in10.0 miESE (110°)11.5 mphClear
8:15 PM-14.8 °F-22.0 °F70 %30.51 in10.0 miESE (110°)10.4 mphClear
8:35 PM-13.0 °F-22.0 °F64 %30.51 in10.0 miESE (110°)9.2 mphClear
8:55 PM-13.0 °F-22.0 °F64 %30.53 in10.0 miESE (120°)8.1 mphClear
9:15 PM-13.0 °F-22.0 °F64 %30.53 in10.0 miESE (110°)11.5 mphClear
9:35 PM-13.0 °F-22.0 °F64 %30.51 in10.0 miEast (100°)12.7 mphClear
9:55 PM-13.0 °F-22.0 °F64 %30.53 in10.0 miESE (110°)11.5 mphClear
10:15 PM-13.0 °F-20.2 °F70 %30.52 in10.0 miESE (120°)12.7 mphClear
10:35 PM-13.0 °F-20.2 °F70 %30.53 in10.0 miSE (130°)10.4 mphClear
10:55 PM-13.0 °F-20.2 °F70 %30.53 in10.0 miESE (120°)11.5 mphClear
11:15 PM-13.0 °F-20.2 °F70 %30.52 in10.0 miSE (130°)15.0 mphClear
11:35 PM-13.0 °F-20.2 °F70 %30.50 in10.0 miESE (120°)16.1 mphClear
11:55 PM-11.2 °F-20.2 °F64 %30.51 in10.0 miESE (120°)16.1 mphClear
Hourly data recorded from KRUG, located miles away from Bantry, North Dakota







STORIES FROM OUR PARTNERS